• MPC Preparation (Info)

  • MPEC 2016-G133: 2016 GK206

    The following Minor Planet Electronic Circular may be linked-to from your own Web pages, but must not otherwise be redistributed electronically.

    A form allowing access to any MPEC is at the bottom of this page.


    Read MPEC 2016-G132 Read MPEC 2016-G134


    M.P.E.C. 2016-G133                               Issued 2016 Apr. 10, 15:35 UT
    
         The Minor Planet Electronic Circulars contain information on unusual
             minor planets and routine data on comets.  They are published
        on behalf of Division F of the International Astronomical Union by the
              Minor Planet Center, Smithsonian Astrophysical Observatory,
                              Cambridge, MA 02138, U.S.A.
    
                 Prepared using the Tamkin Foundation Computer Network
    
                                  MPC@CFA.HARVARD.EDU
                URL https://www.minorplanetcenter.net/    ISSN 1523-6714
    
                                      2016 GK206
    
    Observations:
         K16GK6K* C2016 04 02.27419 07 58 03.809+19 03 28.32         21.9 wLEG133F51
         K16GK6K  C2016 04 02.28677 07 58 05.615+19 03 13.78         22.3 wLEG133F51
         K16GK6K  C2016 04 02.29942 07 58 07.430+19 02 58.78         22.1 wLEG133F51
         K16GK6K  C2016 04 02.31210 07 58 09.264+19 02 43.89         21.9 wLEG133F51
         K16GK6K KC2016 04 04.12439 08 02 51.20 +18 27 13.1                oEG133291
         K16GK6K KC2016 04 04.12902 08 02 51.96 +18 27 08.1                oEG133291
         K16GK6K KC2016 04 04.13363 08 02 52.65 +18 27 02.2                oEG133291
         K16GK6K KC2016 04 05.12503 08 05 31.82 +18 07 06.9                oEG133291
         K16GK6K KC2016 04 05.12878 08 05 32.32 +18 07 02.1                oEG133291
         K16GK6K KC2016 04 05.13252 08 05 32.86 +18 06 57.3                oEG133291
         K16GK6K  C2016 04 10.12671008 19 48.15 +16 20 42.1          21.8 VtEG133H01
         K16GK6K  C2016 04 10.13216408 19 49.10 +16 20 34.6          22.2 VtEG133H01
         K16GK6K  C2016 04 10.14507108 19 51.32 +16 20 17.3          21.5 VtEG133H01
         K16GK6K  C2016 04 10.14941908 19 52.08 +16 20 11.4          22.2 VtEG133H01
    
    Observer details:
    291 LPL/Spacewatch II.  Observer R. A. Mastaler.  1.8-m f/2.7 reflector + CCD.
    F51 Pan-STARRS 1, Haleakala.  Observers B. Gibson, T. Goggia, N. Primak,
        A. Schultz, M. Willman.  Measurers K. Chambers, S. Chastel, L. Denneau,
        H. Flewelling, M. Huber, E. Lilly, E. Magnier, R. Wainscoat, C. Waters,
        R. Weryk.  1.8-m Ritchey-Chretien + CCD.
    H01 Magdalena Ridge Observatory, Socorro.  Observers W. H. Ryan, E. V. Ryan.
        Measurer W. H. Ryan.  2.4-m f/8.9 reflector + CCD.
    
    Orbital elements:
    2016 GK206                                               Earth MOID = 0.1504 AU
    Epoch 2016 Jan. 13.0 TT = JDT 2457400.5                 MPC
    M 333.40002              (2000.0)            P               Q
    n   0.27134689     Peri.  205.00668     -0.98089954     +0.19379574
    a   2.3629407      Node   346.13682     -0.16467363     -0.87307439
    e   0.5147642      Incl.    3.99956     -0.10353106     -0.44741963
    P   3.63           H   21.6           G   0.15           U   6
    Residuals in seconds of arc
    160402 F51  0.4-  0.1+    160404 291  0.5+  0.5+    160410 H01  0.1-  0.1+
    160402 F51  0.2-  0.2+    160404 291  0.5+  0.1+    160410 H01  0.0   0.1-
    160402 F51  0.2-  0.0     160405 291  0.5+  0.2+    160410 H01  0.0   0.0
    160402 F51  0.0   0.0     160405 291  0.6-  0.1-    160410 H01  0.2+  0.0
    160404 291  0.4-  0.1-    160405 291  1.2-  0.3-
    
    Ephemeris:
    2016 GK206               a,e,i = 2.36, 0.51, 4                   q = 1.1466
    Date    TT    R. A. (2000) Decl.     Delta      r     Elong.  Phase     V
    2016 03 11    07 18 32.9 +24 52 47   0.4077  1.2338   117.1    45.8    21.9
    ...
    2016 03 26    07 41 21.8 +21 13 57   0.3970  1.1820   108.0    53.4    21.9
    ...
    2016 04 03    07 59 55.2 +18 49 28   0.3916  1.1632   104.8    56.2    21.9
    ...
    2016 04 09    08 16 27.7 +16 45 40   0.3881  1.1536   103.2    57.7    21.9
    2016 04 10    08 19 25.5 +16 23 39   0.3875  1.1524   103.0    57.9    21.9
    2016 04 11    08 22 26.8 +16 01 13   0.3870  1.1513   102.8    58.1    21.9
    ...
    2016 04 17    08 41 42.3 +13 37 59   0.3847  1.1471   102.0    58.9    21.9
    ...
    2016 04 25    09 10 05.4 +10 04 15   0.3840  1.1480   101.8    59.1    21.9
    ...
    2016 05 10    10 09 41.2 +02 28 26   0.3960  1.1693   103.8    57.0    22.0
    
    A. U. Tomatic                (C) Copyright 2016 MPC           M.P.E.C. 2016-G133
    

    Read MPEC 2016-G132 Read MPEC 2016-G134


    MPEC number:

    Enter an MPEC number in one of the following forms:

    • 1997-B01 (the full form)
    • J97B01 (the packed version of the full form)
    • B01 (the abbreviated form)